period_start,C,m1,H,J0,J1,J2,J3,J4,J5,JA,JB,JC,JD,JJ,JK,JN,#
2015-07-18 00:01:10,-0.01,0.00,0.00,24.77,28.25,30.59,4.68,26.27,1005.88,2035.65,3489.00,3310.79,3604.04,349.98,341.95,0.34,0000 0000 0000 0000 000000
2015-07-18 00:06:11,-0.02,0.00,0.00,24.79,28.25,30.60,4.69,26.24,1005.90,2035.44,3489.00,3310.47,3604.00,350.26,342.08,0.37,0000 0000 0000 0000 000000
2015-07-18 00:11:12,-0.02,0.00,0.00,24.82,28.27,30.62,4.71,26.13,1006.04,2035.20,3488.98,3310.07,3604.00,350.61,342.66,0.40,0000 0000 0000 0000 000000
2015-07-18 00:16:14,-0.01,0.00,0.00,24.83,28.27,30.62,4.71,26.19,1006.19,2035.14,3488.85,3310.02,3603.95,349.85,341.94,0.43,0000 0000 0000 0000 000000
2015-07-18 00:21:15,0.02,0.00,0.00,24.85,28.29,30.63,4.77,26.25,1006.24,2035.09,3488.37,3310.00,3603.61,350.30,342.19,0.46,0000 0000 0000 0000 000000
2015-07-18 00:26:16,0.01,0.00,0.00,24.87,28.30,30.64,4.66,26.25,1006.30,2035.11,3488.11,3310.00,3603.25,349.92,341.93,0.49,0000 0000 0000 0000 000000
2015-07-18 00:31:17,0.01,0.00,0.00,24.87,28.30,30.65,4.69,26.20,1006.17,2035.10,3488.01,3309.99,3603.04,350.02,342.10,0.52,0000 0000 0000 0000 000000
2015-07-18 00:36:18,0.00,0.00,0.00,24.89,28.32,30.66,4.74,26.22,1006.05,2035.08,3488.00,3309.96,3603.00,350.05,341.77,0.55,0000 0000 0000 0000 000000
2015-07-18 00:41:20,0.00,0.00,0.00,24.92,28.33,30.68,4.73,26.24,1006.21,2035.02,3487.99,3309.78,3602.99,350.43,342.22,0.58,0000 0000 0000 0000 000000
2015-07-18 00:46:21,0.02,0.00,0.00,24.92,28.35,30.68,4.70,26.20,1006.30,2035.02,3487.93,3309.49,3602.97,349.82,341.76,0.61,0000 0000 0000 0000 000000
2015-07-18 00:51:22,0.02,0.00,0.00,24.95,28.36,30.70,4.73,26.23,1006.34,2035.02,3487.77,3309.26,3602.80,350.16,342.06,0.64,0000 0000 0000 0000 000000
2015-07-18 00:56:23,0.03,0.00,0.00,24.97,28.37,30.71,4.76,26.21,1006.34,2035.01,3487.41,3309.12,3602.40,350.34,341.91,0.67,0000 0000 0000 0000 000000
2015-07-18 01:01:24,0.01,0.00,0.00,24.98,28.39,30.73,4.67,26.25,1006.33,2035.00,3487.14,3309.02,3602.04,349.98,341.87,0.70,0000 0000 0000 0000 000000
2015-07-18 01:06:26,0.00,0.00,0.00,25.01,28.40,30.74,4.76,26.25,1006.29,2035.00,3487.16,3309.02,3602.01,350.59,342.39,0.72,0000 0000 0000 0000 000000
2015-07-18 01:11:27,0.00,0.00,0.00,25.03,28.42,30.75,4.73,26.18,1006.29,2035.00,3487.01,3308.99,3601.97,350.44,342.25,0.75,0000 0000 0000 0000 000000
2015-07-18 01:16:28,0.01,0.00,0.00,25.05,28.43,30.77,4.72,26.19,1006.25,2034.99,3486.97,3308.98,3601.76,350.47,342.17,0.78,0000 0000 0000 0000 000000
2015-07-18 01:21:30,0.00,0.00,0.00,25.08,28.45,30.78,4.67,26.18,1006.20,2034.96,3486.97,3308.92,3601.41,350.07,341.77,0.81,0000 0000 0000 0000 000000
2015-07-18 01:26:31,0.01,0.00,0.00,25.10,28.46,30.79,4.77,26.32,1006.26,2034.78,3486.52,3308.46,3601.05,350.16,341.83,0.84,0000 0000 0000 0000 000000
2015-07-18 01:31:32,-0.03,0.00,0.00,25.12,28.48,30.81,4.72,26.21,1006.32,2034.43,3486.15,3308.06,3601.00,350.10,341.82,0.87,0000 0000 0000 0000 000000
2015-07-18 01:36:34,-0.02,0.00,0.00,25.15,28.50,30.82,4.66,26.15,1006.36,2034.38,3486.02,3308.01,3600.99,350.17,341.91,0.90,0000 0000 0000 0000 000000
2015-07-18 01:41:35,0.00,0.00,0.00,25.16,28.51,30.84,4.68,26.15,1006.36,2034.27,3486.00,3308.00,3600.97,349.60,341.30,0.93,0000 0000 0000 0000 000000
2015-07-18 01:46:37,-0.02,0.00,0.00,25.18,28.53,30.86,4.75,26.16,1006.36,2034.06,3486.00,3307.99,3600.57,350.60,342.17,0.96,0000 0000 0000 0000 000000
2015-07-18 01:51:38,0.01,0.00,0.00,25.20,28.55,30.87,4.63,26.09,1006.36,2034.02,3485.98,3307.98,3600.07,350.65,342.34,0.99,0000 0000 0000 0000 000000
2015-07-18 01:56:39,0.01,0.00,0.00,25.22,28.57,30.89,4.71,26.19,1006.36,2034.00,3485.85,3307.83,3600.01,350.39,342.00,1.02,0000 0000 0000 0000 000000
2015-07-18 02:01:40,0.03,0.00,0.00,25.25,28.58,30.91,4.68,26.13,1006.36,2034.00,3485.39,3307.30,3600.00,350.18,341.76,1.05,0000 0000 0000 0000 000000
2015-07-18 02:06:41,-0.00,0.00,0.00,25.27,28.60,30.94,4.72,26.15,1006.36,2034.00,3485.28,3307.15,3599.99,349.82,341.29,1.08,0000 0000 0000 0000 000000
2015-07-18 02:11:43,0.02,0.00,0.00,25.30,28.62,30.95,4.73,26.18,1006.36,2034.00,3485.07,3307.04,3599.91,350.01,341.51,1.11,0000 0000 0000 0000 000000
2015-07-18 02:16:44,0.00,0.00,0.00,25.32,28.64,30.96,4.71,26.10,1006.38,2033.98,3485.03,3307.01,3599.62,349.50,341.02,1.13,0000 0000 0000 0000 000000
2015-07-18 02:21:45,0.01,0.00,0.00,25.33,28.65,30.99,4.68,26.14,1006.38,2033.99,3485.00,3307.00,3599.19,350.01,341.47,1.16,0000 0000 0000 0000 000000
2015-07-18 02:26:47,-0.02,0.00,0.00,25.35,28.67,30.99,4.82,26.28,1006.38,2033.88,3484.97,3307.00,3599.02,350.12,341.62,1.19,0000 0000 0000 0000 000000
2015-07-18 02:31:48,-0.00,0.00,0.00,25.36,28.69,31.01,4.69,26.23,1006.38,2033.87,3484.96,3306.98,3599.00,350.07,341.34,1.22,0000 0000 0000 0000 000000
2015-07-18 02:36:49,-0.03,0.00,0.00,25.38,28.70,31.04,4.68,26.20,1006.39,2033.59,3484.68,3306.82,3598.99,349.97,341.45,1.25,0000 0000 0000 0000 000000
2015-07-18 02:41:50,0.00,0.00,0.00,25.40,28.72,31.05,4.65,26.21,1006.40,2033.28,3484.14,3306.29,3598.96,349.82,341.24,1.28,0000 0000 0000 0000 000000
2015-07-18 02:46:52,-0.01,0.00,0.00,25.42,28.74,31.07,4.64,26.15,1006.42,2033.13,3484.04,3306.11,3598.70,349.84,341.27,1.31,0000 0000 0000 0000 000000
2015-07-18 02:51:53,0.00,0.00,0.00,25.45,28.76,31.09,4.67,26.13,1006.43,2033.06,3484.01,3306.03,3598.27,349.94,341.15,1.34,0000 0000 0000 0000 000000
2015-07-18 02:56:54,0.00,0.00,0.00,25.47,28.77,31.10,4.64,26.18,1006.48,2033.06,3484.00,3306.02,3598.09,350.06,341.44,1.37,0000 0000 0000 0000 000000
2015-07-18 03:01:55,-0.00,0.00,0.00,25.49,28.80,31.12,4.67,26.18,1006.46,2033.00,3483.99,3305.99,3598.00,349.74,341.09,1.40,0000 0000 0000 0000 000000
2015-07-18 03:06:57,0.00,0.00,0.00,25.50,28.81,31.14,4.62,26.18,1006.51,2033.00,3483.99,3305.99,3597.99,349.57,341.02,1.43,0000 0000 0000 0000 000000
2015-07-18 03:11:58,0.00,0.00,0.00,25.52,28.83,31.15,4.69,26.20,1006.64,2033.00,3483.93,3305.94,3597.91,350.25,341.75,1.46,0000 0000 0000 0000 000000
2015-07-18 03:16:59,0.06,0.00,0.00,25.54,28.85,31.17,4.70,26.20,1006.76,2032.98,3483.43,3305.55,3597.46,349.84,341.23,1.49,0000 0000 0000 0000 000000
2015-07-18 03:22:00,0.01,0.00,0.00,25.57,28.87,31.20,4.75,26.15,1006.83,2032.99,3483.14,3305.20,3597.09,350.21,341.51,1.52,0000 0000 0000 0000 000000
2015-07-18 03:27:02,-0.02,0.00,0.00,25.60,28.89,31.21,4.71,26.28,1006.85,2032.88,3483.01,3305.05,3597.00,350.46,341.72,1.54,0000 0000 0000 0000 000000
2015-07-18 03:32:03,0.02,0.00,0.00,25.60,28.91,31.23,4.66,26.18,1006.85,2032.91,3483.01,3305.01,3597.00,350.13,341.39,1.57,0000 0000 0000 0000 000000
2015-07-18 03:37:04,-0.04,0.00,0.00,25.62,28.92,31.25,4.68,26.21,1006.84,2032.78,3483.00,3305.00,3597.00,350.19,341.57,1.60,0000 0000 0000 0000 000000
2015-07-18 03:42:06,-0.04,0.00,0.00,25.64,28.95,31.27,4.67,26.17,1006.85,2032.50,3482.99,3305.00,3596.98,349.47,340.85,1.63,0000 0000 0000 0000 000000
2015-07-18 03:47:07,-0.03,0.00,0.00,25.66,28.96,31.29,4.67,26.21,1006.85,2032.20,3482.99,3304.99,3596.90,350.03,341.51,1.66,0000 0000 0000 0000 000000
2015-07-18 03:52:08,0.00,0.00,0.00,25.67,28.98,31.31,4.77,26.18,1006.85,2032.07,3482.95,3304.97,3596.56,350.56,341.79,1.69,0000 0000 0000 0000 000000
2015-07-18 03:57:09,0.03,0.00,0.00,25.69,29.00,31.33,4.66,26.17,1006.86,2032.03,3482.63,3304.71,3596.05,349.97,341.34,1.72,0000 0000 0000 0000 000000
2015-07-18 04:02:10,0.03,0.00,0.00,25.71,29.02,31.35,4.68,26.15,1006.85,2032.00,3482.15,3304.23,3596.01,349.90,341.11,1.75,0000 0000 0000 0000 000000
2015-07-18 04:07:11,0.00,0.00,0.00,25.73,29.04,31.36,4.66,26.21,1006.85,2032.00,3482.01,3304.02,3595.99,349.63,340.84,1.78,0000 0000 0000 0000 000000
2015-07-18 04:12:12,0.00,0.00,0.00,25.75,29.06,31.38,4.69,26.23,1006.87,2032.00,3482.00,3304.00,3595.92,350.06,341.27,1.81,0000 0000 0000 0000 000000
2015-07-18 04:17:13,0.01,0.00,0.00,25.77,29.07,31.40,4.69,26.25,1006.87,2031.99,3481.99,3304.00,3595.52,349.86,340.92,1.84,0000 0000 0000 0000 000000
2015-07-18 04:22:15,0.01,0.00,0.00,25.79,29.10,31.42,4.67,26.22,1006.87,2031.98,3481.82,3303.96,3595.09,350.02,341.16,1.87,0000 0000 0000 0000 000000
2015-07-18 04:27:16,0.02,0.00,0.00,25.82,29.11,31.43,4.72,26.44,1006.87,2031.92,3481.18,3303.87,3595.00,349.97,341.08,1.90,0000 0000 0000 0000 000000
2015-07-18 04:32:18,-0.00,0.00,0.00,25.82,29.13,31.45,4.65,26.13,1006.91,2031.93,3481.23,3303.77,3595.00,349.49,340.93,1.93,0000 0000 0000 0000 000000
2015-07-18 04:37:19,-0.01,0.00,0.00,25.83,29.15,31.47,4.61,26.13,1007.16,2031.70,3481.01,3303.13,3594.94,349.96,341.21,1.95,0000 0000 0000 0000 000000
2015-07-18 04:42:20,-0.05,0.00,0.00,25.86,29.17,31.49,4.73,26.18,1007.25,2031.35,3480.97,3303.00,3594.40,350.10,341.28,1.98,0000 0000 0000 0000 000000
2015-07-18 04:47:22,-0.00,0.00,0.00,25.87,29.19,31.51,4.73,26.29,1007.18,2031.10,3480.85,3303.00,3594.06,350.26,341.44,2.01,0000 0000 0000 0000 000000
2015-07-18 04:52:23,0.01,0.00,0.00,25.88,29.20,31.53,4.59,26.27,1007.07,2031.03,3480.31,3302.98,3594.01,349.51,340.67,2.04,0000 0000 0000 0000 000000
2015-07-18 04:57:24,0.01,0.00,0.00,25.90,29.22,31.55,4.72,26.19,1007.00,2031.00,3480.04,3302.87,3594.00,350.40,341.49,2.07,0000 0000 0000 0000 000000
2015-07-18 05:02:25,0.02,0.00,0.00,25.92,29.24,31.57,4.70,26.24,1006.88,2031.00,3480.00,3302.38,3593.97,350.37,341.36,2.10,0000 0000 0000 0000 000000
2015-07-18 05:07:27,0.02,0.00,0.00,25.93,29.25,31.58,4.69,26.31,1007.14,2030.99,3479.99,3302.06,3593.53,350.56,341.62,2.13,0000 0000 0000 0000 000000
2015-07-18 05:12:28,0.00,0.00,0.00,25.96,29.27,31.60,4.63,26.32,1007.14,2030.99,3479.97,3302.00,3593.10,349.50,340.78,2.16,0000 0000 0000 0000 000000
2015-07-18 05:17:30,0.00,0.00,0.00,25.97,29.29,31.62,4.67,26.25,1007.14,2030.98,3479.96,3302.00,3593.04,350.26,341.24,2.19,0000 0000 0000 0000 000000
2015-07-18 05:22:31,0.01,0.00,0.00,25.98,29.30,31.63,4.67,26.12,1007.10,2030.95,3479.74,3302.00,3593.01,350.51,341.47,2.22,0000 0000 0000 0000 000000
2015-07-18 05:27:32,-0.03,0.00,0.00,26.00,29.32,31.64,4.68,26.37,1007.30,2030.78,3479.12,3301.99,3593.00,349.93,341.03,2.25,0000 0000 0000 0000 000000
2015-07-18 05:32:33,-0.02,0.00,0.00,26.00,29.34,31.66,4.61,26.22,1007.15,2030.58,3479.05,3301.91,3592.96,349.34,340.27,2.28,0000 0000 0000 0000 000000
2015-07-18 05:37:34,-0.02,0.00,0.00,26.02,29.35,31.68,4.63,26.18,1007.14,2030.25,3479.01,3301.63,3592.85,349.66,340.63,2.31,0000 0000 0000 0000 000000
2015-07-18 05:42:36,0.01,0.00,0.00,26.05,29.37,31.70,4.65,26.27,1007.22,2030.06,3478.99,3301.12,3592.18,349.61,340.59,2.34,0000 0000 0000 0000 000000
2015-07-18 05:47:37,-0.00,0.00,0.00,26.06,29.39,31.72,4.66,26.18,1007.25,2030.01,3478.97,3301.00,3592.01,350.14,341.01,2.37,0000 0000 0000 0000 000000
2015-07-18 05:52:37,0.01,0.00,0.00,26.09,29.40,31.72,4.76,26.26,1007.22,2030.00,3478.71,3301.00,3592.00,350.31,340.84,2.39,0000 0000 0000 0000 000000
2015-07-18 05:57:39,0.01,0.00,0.00,26.11,29.42,31.74,4.64,26.18,1007.29,2030.01,3478.37,3301.00,3592.00,349.97,340.69,2.42,0000 0000 0000 0000 000000
2015-07-18 06:02:40,0.00,0.00,0.00,26.12,29.44,31.76,4.71,26.25,1007.34,2030.00,3478.16,3300.99,3591.99,349.79,340.84,2.45,0000 0000 0000 0000 000000
2015-07-18 06:07:41,0.00,0.00,0.00,26.13,29.45,31.77,4.74,26.17,1007.34,2030.00,3478.04,3300.97,3591.94,350.40,341.33,2.48,0000 0000 0000 0000 000000
2015-07-18 06:12:42,0.01,0.00,0.00,26.14,29.47,31.78,4.73,26.22,1007.34,2030.00,3478.00,3300.85,3591.62,350.23,341.12,2.51,0000 0000 0000 0000 000000
2015-07-18 06:17:43,0.03,0.00,0.00,26.16,29.49,31.80,4.67,26.22,1007.33,2029.98,3478.00,3300.34,3591.11,349.99,340.91,2.54,0000 0000 0000 0000 000000
2015-07-18 06:22:45,0.00,0.01,0.00,26.17,29.50,31.81,4.64,26.20,1007.34,2029.93,3477.93,3300.03,3591.01,349.92,340.75,2.57,0000 0000 0000 0000 000000
2015-07-18 06:27:46,-0.00,0.01,0.00,26.18,29.52,31.83,4.76,26.27,1007.33,2029.87,3477.47,3300.00,3590.99,350.39,341.41,2.60,0000 0000 0000 0000 000000
2015-07-18 06:32:48,-0.05,0.00,0.00,26.20,29.54,31.85,4.62,26.09,1007.29,2029.60,3477.24,3300.00,3590.96,350.04,340.89,2.63,0000 0000 0000 0000 000000
2015-07-18 06:37:49,-0.03,0.00,0.00,26.21,29.55,31.87,4.65,26.15,1007.34,2029.21,3477.05,3299.99,3590.64,349.94,340.73,2.66,0000 0000 0000 0000 000000
2015-07-18 06:42:50,-0.01,0.00,0.00,26.24,29.57,31.88,4.67,26.20,1007.34,2029.14,3477.08,3299.98,3590.48,349.85,340.62,2.69,0000 0000 0000 0000 000000
2015-07-18 06:47:51,0.00,0.00,0.00,26.26,29.59,31.90,4.67,26.13,1007.34,2029.04,3477.01,3299.91,3590.06,349.98,340.71,2.72,0000 0000 0000 0000 000000
2015-07-18 06:52:52,0.00,0.00,0.00,26.28,29.61,31.92,4.68,26.15,1007.36,2029.02,3477.01,3299.81,3590.02,349.67,340.47,2.75,0000 0000 0000 0000 000000
2015-07-18 06:57:54,0.02,0.00,0.00,26.30,29.62,31.93,4.69,26.10,1007.39,2029.00,3477.00,3299.24,3590.00,350.27,341.04,2.78,0000 0000 0000 0000 000000
2015-07-18 07:02:55,0.00,0.00,0.00,26.33,29.64,31.94,4.71,26.17,1007.38,2029.00,3476.98,3299.04,3590.00,350.43,341.10,2.80,0000 0000 0000 0000 000000
2015-07-18 07:07:57,0.00,0.00,0.00,26.36,29.66,31.96,4.62,26.06,1007.36,2029.00,3476.85,3299.00,3589.96,349.77,340.30,2.83,0000 0000 0000 0000 000000
2015-07-18 07:12:58,0.02,0.00,0.00,26.38,29.67,31.97,4.74,26.18,1007.34,2029.00,3476.21,3299.00,3589.57,350.41,340.95,2.86,0000 0000 0000 0000 000000
2015-07-18 07:17:59,0.01,0.00,0.00,26.40,29.70,31.99,4.69,26.07,1007.36,2028.99,3476.10,3298.99,3589.18,350.04,340.65,2.89,0000 0000 0000 0000 000000
2015-07-18 07:23:01,0.02,0.01,0.00,26.42,29.71,32.00,4.68,26.13,1007.38,2028.96,3476.00,3298.59,3589.01,350.00,340.69,2.92,0000 0000 0000 0000 000000
2015-07-18 07:28:02,0.02,0.01,0.00,26.44,29.73,32.01,4.68,26.26,1007.56,2028.78,3475.37,3298.03,3588.55,349.65,340.15,2.95,0000 0000 0000 0000 000000
2015-07-18 07:33:03,0.04,0.01,0.00,26.46,29.75,32.03,4.70,26.13,1007.49,2028.87,3474.97,3297.88,3588.02,350.33,340.72,2.98,0000 0000 0000 0000 000000
2015-07-18 07:38:04,-0.02,0.01,0.00,26.50,29.77,32.04,4.64,26.06,1007.50,2028.48,3474.29,3297.15,3587.93,349.80,340.35,3.01,0000 0000 0000 0000 000000
2015-07-18 07:43:06,-0.02,0.01,0.00,26.52,29.77,32.06,4.62,26.15,1007.66,2028.09,3474.00,3297.00,3587.30,349.51,340.22,3.04,0000 0000 0000 0000 000000
2015-07-18 07:48:07,0.07,0.01,0.00,26.54,29.80,32.08,4.76,26.20,1007.68,2028.03,3473.40,3296.43,3586.81,350.56,341.06,3.07,0000 0000 0000 0000 000000
2015-07-18 07:53:08,0.01,0.01,0.00,26.57,29.81,32.11,4.68,26.13,1007.58,2028.01,3473.00,3296.02,3586.44,350.07,340.51,3.10,0000 0000 0000 0000 000000
2015-07-18 07:58:09,0.00,0.01,0.00,26.58,29.83,32.12,4.62,26.12,1007.41,2028.00,3472.96,3296.00,3586.06,349.53,340.01,3.13,0000 0000 0000 0000 000000
2015-07-18 08:03:11,0.01,0.01,0.00,26.60,29.85,32.14,4.70,26.18,1007.41,2028.00,3472.49,3296.00,3586.01,350.27,340.60,3.16,0000 0000 0000 0000 000000
2015-07-18 08:08:12,0.01,0.01,0.00,26.61,29.87,32.16,4.58,26.14,1007.47,2027.99,3472.12,3295.97,3585.99,349.65,340.04,3.19,0000 0000 0000 0000 000000
2015-07-18 08:13:13,0.01,0.01,0.00,26.62,29.89,32.19,4.65,26.02,1007.42,2027.98,3472.02,3295.76,3585.91,350.05,340.35,3.21,0000 0000 0000 0000 000000
2015-07-18 08:18:15,0.04,0.01,0.00,26.62,29.91,32.21,4.69,26.19,1007.53,2027.96,3472.00,3295.23,3585.36,350.20,340.58,3.24,0000 0000 0000 0000 000000
2015-07-18 08:23:16,-0.03,0.01,0.00,26.63,29.92,32.23,4.63,26.24,1007.80,2027.77,3471.99,3295.01,3585.03,349.91,340.54,3.27,0000 0000 0000 0000 000000
2015-07-18 08:28:17,-0.04,0.01,0.00,26.65,29.95,32.25,4.69,26.25,1007.81,2027.33,3471.55,3294.99,3584.99,350.10,340.85,3.30,0000 0000 0000 0000 000000
2015-07-18 08:33:19,-0.01,0.01,0.00,26.65,29.96,32.27,4.66,26.21,1007.83,2027.21,3471.33,3294.95,3584.98,349.94,340.56,3.33,0000 0000 0000 0000 000000
2015-07-18 08:38:20,-0.00,0.01,0.00,26.65,29.97,32.30,4.72,26.18,1007.83,2027.07,3471.05,3294.91,3584.94,350.31,340.84,3.36,0000 0000 0000 0000 000000
2015-07-18 08:43:22,0.03,0.01,0.00,26.66,30.00,32.31,4.66,26.21,1007.84,2027.02,3471.01,3294.52,3584.59,349.91,340.21,3.39,0000 0000 0000 0000 000000
2015-07-18 08:48:23,0.02,0.01,0.00,26.65,30.01,32.33,4.65,26.18,1007.83,2027.00,3471.00,3294.13,3584.12,350.29,340.60,3.42,0000 0000 0000 0000 000000
2015-07-18 08:53:24,0.00,0.01,0.00,26.65,30.02,32.35,4.70,26.18,1007.83,2027.00,3470.99,3294.03,3584.04,350.17,340.71,3.45,0000 0000 0000 0000 000000
2015-07-18 08:58:26,0.00,0.01,0.00,26.65,30.04,32.37,4.64,26.25,1007.84,2027.00,3470.94,3294.00,3584.00,349.95,340.47,3.48,0000 0000 0000 0000 000000
2015-07-18 09:03:27,0.01,0.01,0.00,26.66,30.05,32.38,4.67,26.20,1007.85,2026.99,3470.58,3293.99,3584.00,350.08,340.55,3.51,0000 0000 0000 0000 000000
2015-07-18 09:08:28,0.01,0.01,0.00,26.65,30.07,32.39,4.64,26.13,1007.85,2026.96,3470.19,3293.99,3583.98,349.76,340.00,3.54,0000 0000 0000 0000 000000
2015-07-18 09:13:30,0.00,0.01,0.00,26.65,30.08,32.41,4.68,26.12,1007.83,2026.97,3470.14,3293.96,3583.96,349.92,340.59,3.57,0000 0000 0000 0000 000000
2015-07-18 09:18:31,0.04,0.01,0.00,26.65,30.10,32.42,4.72,26.16,1007.83,2026.94,3470.00,3293.45,3583.27,350.52,340.89,3.60,0000 0000 0000 0000 000000
2015-07-18 09:23:32,0.00,0.01,0.00,26.65,30.10,32.43,4.67,26.18,1007.83,2026.90,3469.98,3293.20,3583.09,349.44,340.01,3.62,0000 0000 0000 0000 000000
2015-07-18 09:28:34,-0.02,0.01,0.00,26.65,30.12,32.44,4.66,26.27,1007.84,2026.64,3469.82,3293.03,3583.00,350.02,340.58,3.65,0000 0000 0000 0000 000000
2015-07-18 09:33:35,-0.01,0.01,0.00,26.65,30.12,32.46,4.67,26.27,1007.84,2026.63,3469.94,3293.02,3583.00,350.13,340.49,3.68,0000 0000 0000 0000 000000
2015-07-18 09:38:36,-0.06,0.01,0.00,26.65,30.13,32.47,4.66,26.30,1007.83,2026.29,3469.84,3293.00,3583.00,349.42,340.24,3.71,0000 0000 0000 0000 000000
2015-07-18 09:43:37,-0.01,0.01,0.00,26.63,30.15,32.48,4.64,26.32,1007.84,2026.16,3469.63,3293.00,3583.00,349.78,340.36,3.74,0000 0000 0000 0000 000000
2015-07-18 09:48:38,-0.02,0.01,0.00,26.62,30.15,32.48,4.66,26.34,1007.84,2026.09,3469.37,3293.00,3583.00,350.18,340.62,3.77,0000 0000 0000 0000 000000
2015-07-18 09:53:40,0.01,0.01,0.00,26.62,30.15,32.50,4.73,26.27,1007.86,2026.03,3469.08,3293.00,3582.99,350.87,341.29,3.80,0000 0000 0000 0000 000000
2015-07-18 09:58:40,-0.01,0.01,0.00,26.60,30.16,32.49,4.61,26.38,1007.91,2026.05,3469.28,3293.00,3582.99,349.31,339.89,3.83,0000 0000 0000 0000 000000
2015-07-18 10:03:42,-0.00,0.01,0.00,26.60,30.17,32.50,4.72,26.28,1007.94,2026.02,3469.17,3292.99,3582.99,350.36,340.94,3.86,0000 0000 0000 0000 000000
2015-07-18 10:08:43,0.00,0.01,0.00,26.60,30.17,32.51,4.72,26.32,1007.92,2026.00,3469.04,3292.99,3582.98,349.87,340.45,3.89,0000 0000 0000 0000 000000
2015-07-18 10:13:45,0.00,0.01,0.00,26.60,30.17,32.52,4.69,26.32,1007.97,2026.01,3469.01,3292.97,3582.97,350.06,340.66,3.92,0000 0000 0000 0000 000000
2015-07-18 10:18:46,0.00,0.01,0.00,26.57,30.17,32.51,4.68,26.29,1008.03,2026.00,3469.00,3292.93,3582.85,349.86,340.47,3.95,0000 0000 0000 0000 000000
2015-07-18 10:23:47,0.00,0.01,0.00,26.57,30.17,32.51,4.64,26.31,1007.87,2026.00,3469.00,3292.89,3582.72,350.14,340.68,3.98,0000 0000 0000 0000 000000
2015-07-18 10:28:49,0.02,0.01,0.00,26.56,30.18,32.52,4.69,26.29,1008.08,2026.00,3468.99,3292.70,3582.36,350.52,341.13,4.01,0000 0000 0000 0000 000000
2015-07-18 10:33:50,0.01,0.01,0.00,26.55,30.19,32.52,4.67,26.27,1008.26,2026.00,3468.99,3292.57,3582.32,349.77,340.51,4.03,0000 0000 0000 0000 000000
2015-07-18 10:38:52,3.29,0.03,0.00,26.54,30.19,32.53,4.63,26.24,1008.20,2026.00,3457.97,3275.08,3566.03,349.95,340.76,4.06,0000 0000 0000 0000 000000
2015-07-18 10:43:53,11.21,0.29,0.00,26.52,30.20,32.53,4.67,26.33,1008.18,2025.90,3371.99,3147.79,3438.74,350.39,340.93,4.09,0000 0000 0000 0000 000000
2015-07-18 10:48:54,7.67,0.58,0.00,26.51,30.20,32.53,4.63,26.28,1008.31,2025.52,3306.79,3058.48,3345.70,349.51,340.32,4.12,0000 0000 0000 0000 000000
2015-07-18 10:53:56,5.80,0.73,0.00,26.50,30.20,32.54,4.64,26.28,1008.30,2025.26,3267.40,3014.09,3295.85,349.50,340.46,4.15,0000 0000 0000 0000 000000
2015-07-18 10:58:57,4.64,0.94,3.20,26.50,30.19,32.55,4.69,26.27,1008.29,2025.03,3220.96,2950.35,3235.27,350.38,341.05,4.18,0000 0000 0000 0000 000000
2015-07-18 11:03:58,-0.41,0.94,6.00,26.47,30.19,32.54,4.70,26.35,1008.31,2025.01,3227.12,2962.43,3248.63,349.94,340.82,4.21,0000 0000 0000 0000 000000
2015-07-18 11:08:59,-0.64,0.93,6.00,26.47,30.18,32.54,4.68,26.29,1008.31,2025.02,3227.75,2963.21,3249.40,350.32,340.94,4.24,0000 0000 0000 0000 000000
2015-07-18 11:14:00,-0.63,0.91,6.00,26.46,30.18,32.54,4.67,26.38,1008.31,2025.01,3227.90,2963.71,3249.80,350.09,340.95,4.27,0000 0000 0000 0000 000000
2015-07-18 11:19:01,-0.09,0.90,6.00,26.45,30.17,32.55,4.64,26.29,1008.31,2025.02,3227.78,2962.36,3249.00,349.48,340.34,4.30,0000 0000 0000 0000 000000
2015-07-18 11:24:03,-0.03,0.90,6.00,26.42,30.17,32.55,4.70,26.40,1008.31,2025.02,3227.97,2962.73,3249.17,349.85,340.73,4.33,0000 0000 0000 0000 000000
2015-07-18 11:29:04,-0.03,0.89,2.60,26.42,30.17,32.53,4.65,26.38,1008.32,2025.01,3228.02,2963.00,3249.89,349.86,340.73,4.36,0000 0000 0000 0000 000000
2015-07-18 11:34:05,-0.08,0.89,0.00,26.40,30.17,32.54,4.63,26.27,1008.32,2025.01,3228.76,2963.69,3250.18,349.79,340.75,4.39,0000 0000 0000 0000 000000
2015-07-18 11:39:07,-0.02,0.89,0.00,26.39,30.17,32.55,4.69,26.30,1008.32,2025.01,3228.99,2963.99,3250.85,350.31,341.25,4.42,0000 0000 0000 0000 000000
2015-07-18 11:44:08,-0.01,0.89,0.00,26.37,30.16,32.55,4.67,26.30,1008.32,2025.02,3229.15,2964.01,3250.99,350.10,341.05,4.44,0000 0000 0000 0000 000000
2015-07-18 11:49:09,-0.03,0.89,0.00,26.35,30.15,32.55,4.69,26.29,1008.33,2025.02,3229.76,2964.19,3251.02,349.72,340.84,4.47,0000 0000 0000 0000 000000
2015-07-18 11:54:10,-0.03,0.89,0.00,26.35,30.15,32.56,4.67,26.27,1008.33,2025.04,3229.96,2964.78,3251.27,349.76,340.78,4.50,0000 0000 0000 0000 000000
2015-07-18 11:59:11,-0.01,0.89,0.00,26.33,30.15,32.55,4.65,26.27,1008.33,2025.06,3229.98,2964.97,3251.59,349.78,340.62,4.53,0000 0000 0000 0000 000000
2015-07-18 12:04:12,-0.01,0.89,0.00,26.32,30.13,32.54,4.67,26.27,1008.32,2025.04,3229.99,2964.99,3251.86,350.17,341.20,4.56,0000 0000 0000 0000 000000
2015-07-18 12:09:14,0.00,0.89,0.00,26.30,30.12,32.55,4.71,26.27,1008.32,2025.07,3229.99,2964.99,3251.97,350.30,341.24,4.59,0000 0000 0000 0000 000000
2015-07-18 12:14:15,0.00,0.89,0.00,26.28,30.12,32.55,4.69,26.33,1008.32,2025.08,3229.99,2964.99,3251.98,349.98,340.99,4.62,0000 0000 0000 0000 000000
2015-07-18 12:19:17,0.00,0.89,0.00,26.27,30.11,32.55,4.65,26.32,1008.32,2025.10,3229.99,2965.03,3251.99,349.42,340.74,4.65,0000 0000 0000 0000 000000
2015-07-18 12:24:18,0.01,0.89,0.00,26.25,30.10,32.55,4.67,26.33,1008.31,2025.20,3229.99,2965.03,3251.99,349.75,341.12,4.68,0000 0000 0000 0000 000000
2015-07-18 12:29:19,0.01,0.89,0.00,26.23,30.10,32.55,4.72,26.32,1008.32,2025.28,3230.00,2965.09,3251.99,350.60,341.59,4.71,0000 0000 0000 0000 000000
2015-07-18 12:34:20,0.00,0.89,0.00,26.22,30.08,32.55,4.70,26.27,1008.32,2025.40,3230.00,2965.26,3251.99,349.97,341.18,4.74,0000 0000 0000 0000 000000
2015-07-18 12:39:21,0.01,0.89,0.00,26.20,30.07,32.54,4.66,26.29,1008.32,2025.53,3230.00,2965.55,3251.99,350.39,341.52,4.77,0000 0000 0000 0000 000000
2015-07-18 12:44:23,0.01,0.89,0.00,26.18,30.07,32.52,4.72,26.32,1008.32,2025.75,3230.00,2965.85,3252.00,349.97,341.00,4.80,0000 0000 0000 0000 000000
2015-07-18 12:49:24,0.02,0.89,0.00,26.17,30.05,32.52,4.69,26.31,1008.33,2025.88,3230.01,2965.95,3252.05,350.19,341.39,4.83,0000 0000 0000 0000 000000
2015-07-18 12:54:25,-0.00,0.89,0.00,26.15,30.05,32.53,4.64,26.25,1008.32,2025.94,3230.07,2965.99,3252.21,349.88,341.20,4.85,0000 0000 0000 0000 000000
2015-07-18 12:59:26,-0.02,0.89,0.00,26.14,30.04,32.51,4.70,26.29,1008.32,2025.97,3230.44,2965.99,3252.62,350.17,341.49,4.88,0000 0000 0000 0000 000000
2015-07-18 13:04:28,-0.01,0.89,0.00,26.12,30.02,32.50,4.62,26.37,1008.32,2025.98,3230.55,2966.01,3252.83,349.57,341.10,4.91,0000 0000 0000 0000 000000